Location: Ohmer (historical)
(38.0096°N, 122.0227°W)
Time: 02:50:40
(UTC+00:00)

Cosmos 1934 Rocket - Pass Details

Date: 14 February 2026
Orbit: 938 x 997 km, 83.0° (Epoch: 7 March)

Event Time Altitude Azimuth Distance (km) Brightness Sun altitude
Rises 12:45:23 0° 188° (S) 3,593 6.9 -26.9°
Reaches altitude 10° 12:47:51 10° 189° (S) 2,658 6.1 -26.4°
Maximum altitude 12:53:55 80° 276° (W) 973 3.8 -25.2°
Drops below altitude 10° 13:00:08 10° 4° (N) 2,712 6.4 -24.0°
Sets 13:02:40 0° 6° (N) 3,672 7.1 -23.5°
